User: anonymous   Login
Location: Chochol
(49.7771°N, 14.9780°E)
Time: 14:53:16
(UTC+00:00)
Language:

ERS-1 Rocket - Orbit

View from above orbital plane
View from above orbital plane
View from above satellite
View from above satellite

Ground track
Ground track

The orbit data is extracted from the following two-line orbital elements,

1 21610U 91050F   21163.10641925  .00000033  00000-0  23728-4 0  9998
2 21610  98.4232 233.9264 0002026 250.6965 170.7394 14.40951073569771
Epoch (UTC): 12 June 2021 02:33:14
Eccentricity: 0.0002026
inclination: 98.4232°
perigee height: 754 km
apogee height: 757 km
right ascension of ascending node: 233.9264°
argument of perigee: 250.6965°
revolutions per day: 14.40951073
mean anomaly at epoch: 170.7394°
orbit number at epoch: 56977

The dashed part of the orbit path shows where the satellite is in the earth's shadow,  

DLR